Torna al catalogo

STARLINK-4344

AttivoComunicazioniSSO
NORAD 53072·PAYLOAD·🇺🇸 United States

Lanciato Jul 11, 2022 da Vandenberg Space Force Base

Loading…

Prossimi Passaggi (prossime 24 ore)

TLE

AggiornatoSource: CelesTrak SupGP

Epoca: Sep 14, 2026, 20:47 UTC

1 53072C 22077AF  26257.86645833  .00090794  00000+0  28186-2 0  2572
2 53072  97.2857  73.6306 0001517  94.9181   6.1734 15.33391131    10

Traccia STARLINK-4344 in tempo reale con AllMySat

Download on the App Store